Location: Bois de la Silve
(44.4667°N, 6.7833°E)
Time: 10:20:23
(UTC+00:00)

Cosmos 2100 Rocket - Pass Details

Date: 14 July 2020
Orbit: 955 x 1002 km, 82.9° (Epoch: 05 August)

Event Time Altitude Azimuth Distance (km) Brightness Sun altitude
Exits shadow 00:45:06 39° 169° (S) 1,426 4.4 -22.2°
Maximum altitude 00:47:31 74° 95° (E) 1,023 4.1 -22.1°
Drops below altitude 10° 00:53:45 10° 12° (NNE) 2,725 7.5 -21.7°
Sets 00:56:15 0° 10° (N) 3,670 8.5 -21.6°
